Location: Cheny Ridge Estates
(40.6074°N, 111.8785°W)
Time: 16:30:51
(UTC+00:00)

Envisat - Visible Passes

Search period start: 08 March 2021 00:00
Search period end: 18 March 2021 00:00
Orbit: 764 x 766 km, 98.1° (Epoch: 07 March)

Date Brightness Start Highest point End Pass type
(mag) Time Alt. Az. Time Alt. Az. Time Alt. Az.
08 Mar 5.9 11:58:45 10° NE 12:02:08 18° E 12:05:28 10° SE visible
09 Mar 3.4 12:59:36 10° NNE 13:04:41 70° ESE 13:09:44 10° S visible
10 Mar 5.0 12:23:15 10° NE 12:27:44 31° E 12:32:11 10° SSE visible
11 Mar 6.1 11:48:04 10° ENE 11:50:34 14° E 11:53:04 10° ESE visible
12 Mar 3.9 12:48:14 10° NNE 12:53:14 54° E 12:58:12 10° S visible
13 Mar 5.4 12:12:07 10° NE 12:16:13 24° E 12:20:18 10° SSE visible
14 Mar 6.4 11:38:19 10° E 11:39:00 10° E 11:39:41 10° E visible
15 Mar 4.4 12:36:56 10° NNE 12:41:46 42° E 12:46:34 10° S visible
16 Mar 5.8 12:01:06 10° NE 12:04:42 19° E 12:08:16 10° SE visible
17 Mar 3.3 13:02:07 10° NNE 13:07:12 76° E 13:12:17 10° S visible
